Regional Weather Roundup
Issued by NWS

Home | Current Version | Previous Version | Text Only | Print | Product List | Glossary On
Versions: 1 2 3 4 5 6 7 8 9 10 11 12 13 14 15 16 17 18 19 20 21 22 23 24 25 26 27 28 29 30 31 32 33 34 35 36 37 38 39 40 41 42 43 44 45 46 47 48 49 50
000
ASUS46 KPQR 281210
RWROR

OREGON REGIONAL WEATHER ROUNDUP
NATIONAL WEATHER SERVICE PORTLAND OR
500 AM PDT FRI AUG 28 2015

NOTE: "FAIR" INDICATES FEW OR NO CLOUDS BELOW 12,000 FEET WITH
NO SIGNIFICANT WEATHER AND/OR OBSTRUCTIONS TO VISIBILITY.

ORZ001>013-281300-
NORTHWEST OREGON


CITY           SKY/WX    TMP DP  RH WIND       PRES   REMARKS
ASTORIA        CLOUDY    59  58  96 CALM      29.99S
6HR MIN TEMP:  59; 6HR MAX TEMP:  61; 6HR PCP:  0.29;

NEWPORT        DRIZZLE   59  59 100 E3        30.05S
PORTLAND       LGT RAIN  66  54  65 N6        30.01F
6HR MIN TEMP:  66; 6HR MAX TEMP:  77; 6HR PCP: TRACE;

VANCOUVER WA   LGT RAIN  65  53  65 NE3       30.01F
6HR MIN TEMP:  65; 6HR MAX TEMP:  76; 6HR PCP: TRACE;

SCAPPOOSE      LGT RAIN  61  56  83 W3        30.00F
6HR MIN TEMP:  61; 6HR MAX TEMP:  73; 6HR PCP:  0.01;

HILLSBORO      CLOUDY    62  58  86 NW5       30.01S
6HR MIN TEMP:  62; 6HR MAX TEMP:  74; 6HR PCP:  0.02;

AURORA         LGT RAIN  66  48  52 CALM      30.02F
6HR MIN TEMP:  66; 6HR MAX TEMP:  72; 6HR PCP: TRACE;

MCMINNVILLE    CLOUDY    62  59  90 CALM      30.02F
6HR MIN TEMP:  62; 6HR MAX TEMP:  71; 6HR PCP:  0.03;

SALEM          CLOUDY    66  50  56 SE3       30.00F
6HR MIN TEMP:  65; 6HR MAX TEMP:  70; 6HR PCP: TRACE;

CORVALLIS      CLOUDY    64  48  55 CALM      30.03F
EUGENE         CLOUDY    64  50  60 CALM      30.02F
6HR MIN TEMP:  64; 6HR MAX TEMP:  67;

$$

ORZ021-028-281300-
SOUTHWEST OREGON


CITY           SKY/WX    TMP DP  RH WIND       PRES   REMARKS
NORTH BEND     CLOUDY    63  63 100 CALM      30.01F
6HR MIN TEMP:  61; 6HR MAX TEMP:  66;

BROOKINGS      CLOUDY    64  56  75 CALM      30.01R
ROSEBURG       CLOUDY    67  50  54 CALM      30.00F
6HR MIN TEMP:  67; 6HR MAX TEMP:  73;

SEXTON SUMMIT  CLOUDY    59  51  75 SE12      30.10F
6HR MIN TEMP:  59; 6HR MAX TEMP:  61;

MEDFORD        CLOUDY    66  48  52 NE3       30.02F
6HR MIN TEMP:  66; 6HR MAX TEMP:  76;

$$

ORZ014>016-041-281300-
COLUMBIA GORGE


CITY           SKY/WX    TMP DP  RH WIND       PRES   REMARKS
TROUTDALE      LGT RAIN  69  47  45 SE6       30.01F
6HR MIN TEMP:  69; 6HR MAX TEMP:  76; 6HR PCP: TRACE;

THE DALLES     CLOUDY    75  44  33 W18G25    29.94S
6HR MIN TEMP:  74; 6HR MAX TEMP:  79;

$$

ORZ029>031-041-044-049-050-061>064-502-503-505>511-281300-
EASTERN OREGON


CITY           SKY/WX    TMP DP  RH WIND       PRES   REMARKS
REDMOND        CLOUDY    61  42  49 S5        30.06F
6HR MIN TEMP:  56; 6HR MAX TEMP:  71;

BEND           CLOUDY    63  43  48 SW7       30.08S
PRINEVILLE     CLOUDY    61  41  48 SW6       30.07S
KLAMATH FALLS  CLOUDY    54  46  74 E3        30.14S HAZE
6HR MIN TEMP:  51; 6HR MAX TEMP:  63;

LAKEVIEW       MOCLDY    45  32  61 W6          N/A
HERMISTON      MOCLDY    64  46  52 CALM      29.90F
6HR MIN TEMP:  60; 6HR MAX TEMP:  75;

PENDLETON      MOCLDY    63  39  41 SE5       29.95S
6HR MIN TEMP:  62; 6HR MAX TEMP:  73;

JOHN DAY       CLEAR     64  38  38 SW5       30.08S
MEACHAM        MOCLDY    48  38  68 CALM      30.07S
6HR MIN TEMP:  48; 6HR MAX TEMP:  56;

LA GRANDE      PTCLDY    57  34  41 CALM      30.00F
6HR MIN TEMP:  55; 6HR MAX TEMP:  70;

BAKER CITY     PTCLDY    51  45  79 CALM      30.04F
6HR MIN TEMP:  50; 6HR MAX TEMP:  62;

BURNS          MOCLDY    46  30  53 W5        30.13R
6HR MIN TEMP:  46; 6HR MAX TEMP:  58;

ROME             N/A     63  34  33 CALM      30.09F
6HR MIN TEMP:  60; 6HR MAX TEMP:  76;

ONTARIO        PTCLDY    57  44  62 W7        30.00R
6HR MIN TEMP:  56; 6HR MAX TEMP:  69;

$$



USA.gov is the U.S. government's official web portal to all federal, state and local government web resources and services.